Location: Gleizolles
(44.4833°N, 6.7667°E)
Time: 09:14:41
(UTC+00:00)

CUTE 1.7 + AOD 2 - Pass Details

Date: 11 May 2021
Orbit: 593 x 611 km, 97.6° (Epoch: 21 June)

Event Time Altitude Azimuth Distance (km) Brightness Sun altitude
Rises 02:49:44 0° 32° (NNE) 2,841 ? -12.7°
Reaches altitude 10° 02:52:57 10° 59° (ENE) 1,932 ? -12.3°
Maximum altitude 02:55:04 14° 90° (E) 1,702 ? -12.0°
Drops below altitude 10° 02:57:11 10° 121° (ESE) 1,924 ? -11.7°
Sets 03:00:22 0° 147° (SSE) 2,820 ? -11.3°
